| time (UTC) | temp C | wind direction | speed KPH | gust KPH | rain 1hr cm | rain 24hr cm | rain mn cm | humidity % | barometer mb |
| 20260508070750 | 11 | 206 | 8.0 | 14.5 | 0.00 | 0.00 | 0.00 | 81 | 1016.3 |
| 20260508065800 | 10 | 195 | 6.4 | 12.9 | 0.00 | 0.00 | 0.00 | 81 | 1016.2 |
| 20260508064732 | 10 | 195 | 8.0 | 12.9 | 0.00 | 0.00 | 0.00 | 82 | 1016.2 |
| 20260508063729 | 10 | 216 | 6.4 | 9.7 | 0.00 | 0.00 | 0.00 | 82 | 1016.4 |
| 20260508062714 | 10 | 181 | 6.4 | 12.9 | 0.00 | 0.00 | 0.00 | 82 | 1016.3 |
| 20260508055353 | 9 | 190 | 6.4 | 11.3 | 0.00 | 0.00 | 0.00 | 82 | 1015.8 |
| 20260508054411 | 9 | 208 | 6.4 | 16.1 | 0.00 | 0.00 | 0.00 | 82 | 1015.8 |
| 20260508053410 | 9 | 186 | 9.7 | 16.1 | 0.00 | 0.00 | 0.00 | 82 | 1015.7 |
| 20260508051214 | 9 | 212 | 4.8 | 12.9 | 0.00 | 0.00 | 0.00 | 82 | 1015.6 |
| 20260508050202 | 9 | 179 | 6.4 | 12.9 | 0.00 | 0.00 | 0.00 | 82 | 1015.6 |
| 20260508045157 | 9 | 197 | 6.4 | 12.9 | 0.00 | 0.00 | 0.00 | 82 | 1015.5 |
| 20260508044125 | 9 | 190 | 6.4 | 9.7 | 0.00 | 0.00 | 0.00 | 81 | 1015.6 |
| 20260508043143 | 9 | 205 | 6.4 | 9.7 | 0.00 | 0.00 | 0.00 | 81 | 1015.6 |
| 20260508042151 | 9 | 198 | 6.4 | 12.9 | 0.00 | 0.00 | 0.00 | 81 | 1015.5 |
| 20260508041119 | 9 | 203 | 6.4 | 12.9 | 0.00 | 0.00 | 0.00 | 81 | 1015.5 |
| 20260508040111 | 10 | 194 | 6.4 | 9.7 | 0.00 | 0.00 | 0.00 | 80 | 1015.4 |
| 20260508035039 | 10 | 189 | 6.4 | 12.9 | 0.00 | 0.00 | 0.00 | 80 | 1015.3 |
| 20260508034038 | 10 | 199 | 6.4 | 12.9 | 0.00 | 0.00 | 0.00 | 80 | 1015.3 |
| 20260508033032 | 10 | 193 | 6.4 | 9.7 | 0.00 | 0.00 | 0.00 | 80 | 1015.4 |
| 20260508032050 | 10 | 200 | 6.4 | 11.3 | 0.00 | 0.00 | 0.00 | 80 | 1015.3 |
| 20260508031034 | 10 | 192 | 6.4 | 11.3 | 0.00 | 0.00 | 0.00 | 80 | 1015.4 |
| 20260508030032 | 10 | 197 | 6.4 | 8.0 | 0.00 | 0.00 | 0.00 | 80 | 1015.4 |
| 20260508025048 | 10 | 196 | 4.8 | 8.0 | 0.00 | 0.00 | 0.00 | 80 | 1015.4 |
| 20260508024103 | 10 | 195 | 6.4 | 8.0 | 0.00 | 0.00 | 0.00 | 79 | 1015.5 |
| 20260508023048 | 10 | 190 | 6.4 | 11.3 | 0.00 | 0.00 | 0.00 | 79 | 1015.5 |
| 20260508022107 | 10 | 187 | 6.4 | 11.3 | 0.00 | 0.00 | 0.00 | 79 | 1015.5 |
| 20260508021112 | 10 | 208 | 6.4 | 9.7 | 0.00 | 0.00 | 0.00 | 79 | 1015.4 |
| 20260508020054 | 10 | 199 | 6.4 | 9.7 | 0.00 | 0.00 | 0.00 | 78 | 1015.4 |
| 20260508015117 | 10 | 197 | 6.4 | 9.7 | 0.00 | 0.00 | 0.00 | 79 | 1015.4 |
| 20260508014111 | 10 | 200 | 6.4 | 8.0 | 0.00 | 0.00 | 0.00 | 78 | 1015.5 |
| 20260508013113 | 10 | 189 | 6.4 | 11.3 | 0.00 | 0.00 | 0.00 | 78 | 1015.4 |
| 20260508012135 | 10 | 200 | 6.4 | 11.3 | 0.00 | 0.00 | 0.00 | 78 | 1015.4 |
| 20260508004851 | 10 | 210 | 6.4 | 9.7 | 0.00 | 0.00 | 0.00 | 77 | 1015.5 |
| 20260508003851 | 10 | 196 | 6.4 | 11.3 | 0.00 | 0.00 | 0.00 | 76 | 1015.4 |
| 20260508002822 | 10 | 191 | 6.4 | 11.3 | 0.00 | 0.00 | 0.00 | 76 | 1015.3 |
| 20260508001826 | 10 | 208 | 6.4 | 9.7 | 0.00 | 0.00 | 0.00 | 75 | 1015.5 |
| 20260508000837 | 10 | 196 | 6.4 | 12.9 | 0.00 | 0.00 | 0.00 | 75 | 1015.4 |
| 20260507235858 | 11 | 198 | 6.4 | 12.9 | 0.00 | 0.00 | 0.00 | 74 | 1015.4 |
| 20260507234916 | 11 | 189 | 6.4 | 12.9 | 0.00 | 0.00 | 0.00 | 74 | 1015.4 |
| 20260507233846 | 11 | 197 | 6.4 | 9.7 | 0.00 | 0.00 | 0.00 | 74 | 1015.4 |
| 20260507232852 | 11 | 194 | 6.4 | 11.3 | 0.00 | 0.00 | 0.00 | 73 | 1015.5 |
| 20260507231911 | 11 | 220 | 6.4 | 12.9 | 0.00 | 0.00 | 0.00 | 73 | 1015.5 |
| 20260507230931 | 11 | 204 | 6.4 | 12.9 | 0.00 | 0.00 | 0.00 | 73 | 1015.4 |
| 20260507225859 | 11 | 204 | 6.4 | 12.9 | 0.00 | 0.00 | 0.00 | 72 | 1015.5 |
| 20260507224918 | 11 | 208 | 8.0 | 12.9 | 0.00 | 0.00 | 0.00 | 72 | 1015.4 |
| 20260507223923 | 11 | 182 | 6.4 | 9.7 | 0.00 | 0.00 | 0.00 | 72 | 1015.5 |
| 20260507220602 | 11 | 188 | 8.0 | 16.1 | 0.00 | 0.00 | 0.00 | 71 | 1015.6 |
| 20260507215614 | 11 | 193 | 8.0 | 16.1 | 0.00 | 0.00 | 0.00 | 70 | 1015.4 |
| 20260507214554 | 12 | 186 | 11.3 | 12.9 | 0.00 | 0.00 | 0.00 | 70 | 1015.5 |
| 20260507213949 | 12 | 181 | 8.0 | 19.3 | 0.00 | 0.00 | 0.00 | 70 | 1015.5 |
| 20260507212949 | 12 | 196 | 9.7 | 19.3 | 0.00 | 0.00 | 0.00 | 69 | 1015.5 |
| 20260507212013 | 12 | 182 | 9.7 | 17.7 | 0.00 | 0.00 | 0.00 | 69 | 1015.4 |
| 20260507210959 | 12 | 178 | 8.0 | 17.7 | 0.00 | 0.00 | 0.00 | 68 | 1015.3 |
| 20260507205946 | 12 | 172 | 9.7 | 12.9 | 0.00 | 0.00 | 0.00 | 68 | 1015.2 |
| 20260507205653 | 12 | 189 | 8.0 | 16.1 | 0.00 | 0.00 | 0.00 | 68 | 1015.1 |
| 20260507204632 | 12 | 202 | 8.0 | 17.7 | 0.00 | 0.00 | 0.00 | 67 | 1015.1 |
| 20260507203637 | 12 | 190 | 8.0 | 17.7 | 0.00 | 0.00 | 0.00 | 67 | 1015.1 |
| 20260507202657 | 12 | 182 | 8.0 | 14.5 | 0.00 | 0.00 | 0.00 | 66 | 1014.8 |
| 20260507201656 | 12 | 193 | 8.0 | 14.5 | 0.00 | 0.00 | 0.00 | 65 | 1014.8 |
| 20260507200634 | 12 | 199 | 8.0 | 22.5 | 0.00 | 0.00 | 0.00 | 64 | 1014.6 |
| 20260507193338 | 13 | 192 | 6.4 | 14.5 | 0.00 | 0.00 | 0.00 | 62 | 1014.3 |
| 20260507192341 | 13 | 206 | 6.4 | 11.3 | 0.00 | 0.00 | 0.00 | 61 | 1014.4 |
| 20260507191311 | 13 | 178 | 8.0 | 17.7 | 0.00 | 0.00 | 0.00 | 61 | 1014.3 |
| 20260507190246 | 13 | 182 | 6.4 | 14.5 | 0.00 | 0.00 | 0.00 | 60 | 1014.3 |
| 20260507185246 | 13 | 200 | 6.4 | 14.5 | 0.00 | 0.00 | 0.00 | 60 | 1014.4 |
| 20260507184218 | 13 | 183 | 6.4 | 12.9 | 0.00 | 0.00 | 0.00 | 58 | 1014.2 |
| 20260507183211 | 13 | 229 | 6.4 | 12.9 | 0.00 | 0.00 | 0.00 | 58 | 1014.2 |
| 20260507181024 | 14 | 196 | 8.0 | 14.5 | 0.00 | 0.00 | 0.00 | 56 | 1014.1 |
| 20260507175955 | 14 | 190 | 8.0 | 12.9 | 0.00 | 0.00 | 0.00 | 56 | 1014.0 |
| 20260507175007 | 15 | 189 | 6.4 | 14.5 | 0.00 | 0.00 | 0.00 | 55 | 1013.9 |
| 20260507173939 | 15 | 190 | 6.4 | 14.5 | 0.00 | 0.00 | 0.00 | 55 | 1014.0 |
| 20260507172946 | 15 | 192 | 8.0 | 14.5 | 0.00 | 0.00 | 0.00 | 54 | 1013.9 |
| 20260507171921 | 15 | 217 | 9.7 | 16.1 | 0.00 | 0.00 | 0.00 | 52 | 1013.9 |
| 20260507170904 | 16 | 177 | 9.7 | 16.1 | 0.00 | 0.00 | 0.00 | 51 | 1013.9 |
| 20260507165607 | 15 | 204 | 6.4 | 16.1 | 0.00 | 0.00 | 0.00 | 53 | 1013.9 |
| 20260507164626 | 15 | 202 | 8.0 | 16.1 | 0.00 | 0.00 | 0.00 | 53 | 1014.1 |
| 20260507163634 | 16 | 211 | 8.0 | 12.9 | 0.00 | 0.00 | 0.00 | 53 | 1014.1 |
| 20260507160309 | 17 | 197 | 8.0 | 17.7 | 0.00 | 0.00 | 0.00 | 50 | 1013.9 |
| 20260507155247 | 17 | 203 | 9.7 | 17.7 | 0.00 | 0.00 | 0.00 | 49 | 1014.1 |
| 20260507154311 | 17 | 195 | 8.0 | 12.9 | 0.00 | 0.00 | 0.00 | 51 | 1014.1 |
| 20260507152205 | 17 | 180 | 8.0 | 19.3 | 0.00 | 0.00 | 0.00 | 50 | 1014.1 |
| 20260507151212 | 17 | 212 | 9.7 | 19.3 | 0.00 | 0.00 | 0.00 | 49 | 1014.3 |
| 20260507145012 | 16 | 218 | 9.7 | 14.5 | 0.00 | 0.00 | 0.00 | 50 | 1014.4 |
| 20260507144021 | 16 | 185 | 9.7 | 14.5 | 0.00 | 0.00 | 0.00 | 50 | 1014.6 |
| 20260507143002 | 17 | 189 | 8.0 | 14.5 | 0.00 | 0.00 | 0.00 | 48 | 1014.7 |
| 20260507142019 | 17 | 202 | 9.7 | 17.7 | 0.00 | 0.00 | 0.00 | 48 | 1014.7 |
| 20260507140952 | 16 | 167 | 9.7 | 17.7 | 0.00 | 0.00 | 0.00 | 53 | 1014.7 |
| 20260507135922 | 16 | 142 | 6.4 | 16.1 | 0.00 | 0.00 | 0.00 | 53 | 1014.8 |
| 20260507134850 | 16 | 211 | 8.0 | 16.1 | 0.00 | 0.00 | 0.00 | 50 | 1015.0 |
| 20260507133827 | 16 | 192 | 6.4 | 14.5 | 0.00 | 0.00 | 0.00 | 49 | 1015.0 |
| 20260507132805 | 17 | 214 | 9.7 | 14.5 | 0.00 | 0.00 | 0.00 | 49 | 1014.9 |
| 20260507131816 | 16 | 191 | 9.7 | 9.7 | 0.00 | 0.00 | 0.00 | 53 | 1015.0 |
| 20260507130756 | 16 | 197 | 9.7 | 17.7 | 0.00 | 0.00 | 0.00 | 50 | 1015.0 |
| 20260507125815 | 17 | 182 | 11.3 | 17.7 | 0.00 | 0.00 | 0.00 | 49 | 1014.8 |
| 20260507124838 | 17 | 192 | 9.7 | 20.9 | 0.00 | 0.00 | 0.00 | 49 | 1014.9 |
| 20260507123856 | 17 | 201 | 9.7 | 20.9 | 0.00 | 0.00 | 0.00 | 47 | 1015.1 |
| 20260507122911 | 17 | 178 | 9.7 | 16.1 | 0.00 | 0.00 | 0.00 | 51 | 1014.8 |
| 20260507120804 | 16 | 178 | 8.0 | 17.7 | 0.00 | 0.00 | 0.00 | 51 | 1015.1 |
| 20260507115826 | 17 | 221 | 9.7 | 14.5 | 0.00 | 0.00 | 0.00 | 52 | 1015.1 |
| 20260507114846 | 16 | 218 | 9.7 | 17.7 | 0.00 | 0.00 | 0.00 | 54 | 1015.2 |
| 20260507113908 | 15 | 210 | 8.0 | 17.7 | 0.00 | 0.00 | 0.00 | 57 | 1015.3 |
| 20260507112901 | 15 | 210 | 9.7 | 17.7 | 0.00 | 0.00 | 0.00 | 58 | 1015.4 |
| 20260507111915 | 15 | 185 | 9.7 | 14.5 | 0.00 | 0.00 | 0.00 | 58 | 1015.4 |
| 20260507110855 | 15 | 215 | 9.7 | 16.1 | 0.00 | 0.00 | 0.00 | 61 | 1015.4 |
| 20260507105848 | 15 | 193 | 9.7 | 17.7 | 0.00 | 0.00 | 0.00 | 59 | 1015.6 |
| 20260507104909 | 14 | 186 | 9.7 | 17.7 | 0.00 | 0.00 | 0.00 | 66 | 1015.6 |
| 20260507103918 | 13 | 199 | 8.0 | 12.9 | 0.00 | 0.00 | 0.00 | 66 | 1015.7 |
| 20260507102936 | 13 | 201 | 9.7 | 16.1 | 0.00 | 0.00 | 0.00 | 67 | 1015.8 |
| 20260507101902 | 13 | 171 | 9.7 | 20.9 | 0.00 | 0.00 | 0.00 | 68 | 1015.8 |
| 20260507100922 | 12 | 169 | 9.7 | 20.9 | 0.00 | 0.00 | 0.00 | 68 | 1015.8 |
| 20260507095912 | 12 | 195 | 9.7 | 17.7 | 0.00 | 0.00 | 0.00 | 70 | 1015.7 |
| 20260507094926 | 12 | 196 | 8.0 | 17.7 | 0.00 | 0.00 | 0.00 | 71 | 1015.7 |
| 20260507093859 | 12 | 192 | 8.0 | 14.5 | 0.00 | 0.00 | 0.00 | 73 | 1015.7 |
| 20260507092911 | 11 | 251 | 8.0 | 14.5 | 0.00 | 0.00 | 0.00 | 73 | 1015.9 |
| 20260507091854 | 11 | 179 | 9.7 | 14.5 | 0.00 | 0.00 | 0.00 | 74 | 1015.8 |
| 20260507090914 | 11 | 182 | 9.7 | 12.9 | 0.00 | 0.00 | 0.00 | 75 | 1015.9 |
| 20260507090356 | 11 | 212 | 9.7 | 19.3 | 0.00 | 0.00 | 0.00 | 74 | 1016.0 |
| 20260507085329 | 11 | 224 | 9.7 | 19.3 | 0.00 | 0.00 | 0.00 | 77 | 1015.8 |
| 20260507084309 | 10 | 189 | 8.0 | 17.7 | 0.00 | 0.00 | 0.00 | 79 | 1016.0 |
| 20260507083330 | 10 | 191 | 9.7 | 17.7 | 0.00 | 0.00 | 0.00 | 79 | 1016.0 |
| 20260507082314 | 10 | 193 | 8.0 | 14.5 | 0.00 | 0.00 | 0.00 | 81 | 1016.0 |
| 20260507081243 | 9 | 215 | 8.0 | 22.5 | 0.00 | 0.00 | 0.00 | 82 | 1015.9 |
| 20260507080300 | 8 | 187 | 8.0 | 22.5 | 0.00 | 0.00 | 0.00 | 83 | 1015.8 |
| 20260507075249 | 8 | 187 | 8.0 | 14.5 | 0.00 | 0.00 | 0.00 | 85 | 1015.9 |
| 20260507074247 | 8 | 237 | 8.0 | 12.9 | 0.00 | 0.00 | 0.00 | 85 | 1016.0 |
| 20260507073255 | 7 | 198 | 6.4 | 12.9 | 0.00 | 0.00 | 0.00 | 86 | 1015.9 |
| 20260507071133 | 7 | 198 | 6.4 | 12.9 | 0.00 | 0.00 | 0.00 | 87 | 1016.0 |